Time,TemperatureF,DewpointF,PressureIn,WindDirection,WindDirectionDegrees,WindSpeedMPH,WindSpeedGustMPH,Humidity,HourlyPrecipIn,Conditions,Clouds,dailyrainin,SoftwareType,DateUTC
2013-05-21 00:03:00,55.4,51.0,29.88,ENE,66,5.0,8.0,85,0.00,,,0.78,weatherlink.com 1.10,2013-05-21 04:03:00,
2013-05-21 00:18:00,55.5,51.0,29.88,ENE,59,3.0,10.0,85,0.00,,,0.78,weatherlink.com 1.10,2013-05-21 04:18:00,
2013-05-21 00:33:00,55.5,51.0,29.88,ENE,66,4.0,12.0,85,0.00,,,0.78,weatherlink.com 1.10,2013-05-21 04:33:00,
2013-05-21 00:48:00,55.6,51.0,29.89,ENE,69,7.0,10.0,85,0.00,,,0.78,weatherlink.com 1.10,2013-05-21 04:48:00,
2013-05-21 01:03:00,55.5,51.0,29.89,ENE,71,7.0,10.0,85,0.00,,,0.78,weatherlink.com 1.10,2013-05-21 05:03:00,
2013-05-21 01:18:00,55.2,51.0,29.88,ENE,72,5.0,10.0,85,0.00,,,0.78,weatherlink.com 1.10,2013-05-21 05:18:00,
2013-05-21 01:33:00,55.1,51.0,29.89,ENE,63,5.0,11.0,85,0.00,,,0.78,weatherlink.com 1.10,2013-05-21 05:33:00,
2013-05-21 01:48:00,54.9,51.0,29.89,NE,54,8.0,10.0,85,0.00,,,0.78,weatherlink.com 1.10,2013-05-21 05:48:00,
2013-05-21 02:03:00,54.9,51.0,29.89,NNW,338,4.0,12.0,85,0.00,,,0.78,weatherlink.com 1.10,2013-05-21 06:03:00,
2013-05-21 02:18:00,54.6,50.0,29.89,ENE,78,5.0,12.0,85,0.00,,,0.78,weatherlink.com 1.10,2013-05-21 06:18:00,
2013-05-21 02:33:00,54.4,50.0,29.89,East,86,6.0,11.0,85,0.00,,,0.78,weatherlink.com 1.10,2013-05-21 06:33:00,
2013-05-21 02:48:00,54.1,50.0,29.89,East,82,8.0,11.0,85,0.00,,,0.78,weatherlink.com 1.10,2013-05-21 06:48:00,
2013-05-21 03:10:00,53.6,50.0,29.87,ENE,65,4.0,12.0,86,0.00,,,0.78,weatherlink.com 1.10,2013-05-21 07:10:00,
2013-05-21 03:18:00,53.5,50.0,29.87,ENE,72,5.0,11.0,86,0.00,,,0.78,weatherlink.com 1.10,2013-05-21 07:18:00,
2013-05-21 03:33:00,53.4,49.0,29.87,ENE,57,10.0,13.0,86,0.00,,,0.78,weatherlink.com 1.10,2013-05-21 07:33:00,
2013-05-21 03:48:00,53.3,49.0,29.87,ENE,74,3.0,15.0,86,0.00,,,0.78,weatherlink.com 1.10,2013-05-21 07:48:00,
2013-05-21 04:03:00,53.2,49.0,29.88,East,95,2.0,9.0,86,0.00,,,0.78,weatherlink.com 1.10,2013-05-21 08:03:00,
2013-05-21 04:18:00,53.3,49.0,29.88,ENE,63,10.0,11.0,86,0.00,,,0.78,weatherlink.com 1.10,2013-05-21 08:18:00,
2013-05-21 04:33:00,53.3,49.0,29.89,ESE,111,2.0,11.0,86,0.00,,,0.78,weatherlink.com 1.10,2013-05-21 08:33:00,
2013-05-21 04:48:00,53.5,50.0,29.89,East,86,2.0,10.0,86,0.00,,,0.78,weatherlink.com 1.10,2013-05-21 08:48:00,
2013-05-21 05:03:00,53.5,50.0,29.87,East,94,2.0,11.0,86,0.00,,,0.78,weatherlink.com 1.10,2013-05-21 09:03:00,
2013-05-21 05:18:00,53.3,49.0,29.87,ENE,61,8.0,13.0,86,0.00,,,0.78,weatherlink.com 1.10,2013-05-21 09:18:00,
2013-05-21 05:33:00,53.3,49.0,29.87,ESE,106,8.0,14.0,86,0.00,,,0.78,weatherlink.com 1.10,2013-05-21 09:33:00,
2013-05-21 05:48:00,53.4,49.0,29.86,ENE,69,8.0,14.0,86,0.00,,,0.78,weatherlink.com 1.10,2013-05-21 09:48:00,
2013-05-21 06:04:00,53.4,49.0,29.84,ENE,61,8.0,14.0,86,0.00,,,0.78,weatherlink.com 1.10,2013-05-21 10:04:00,
2013-05-21 06:19:00,53.6,50.0,29.86,ESE,105,4.0,14.0,86,0.00,,,0.78,weatherlink.com 1.10,2013-05-21 10:19:00,
2013-05-21 06:34:00,53.8,50.0,29.85,East,83,13.0,13.0,86,0.00,,,0.78,weatherlink.com 1.10,2013-05-21 10:34:00,
2013-05-21 06:49:00,54.0,50.0,29.86,ESE,111,4.0,12.0,85,0.00,,,0.78,weatherlink.com 1.10,2013-05-21 10:49:00,
2013-05-21 07:04:00,54.2,50.0,29.86,ENE,62,5.0,10.0,85,0.00,,,0.78,weatherlink.com 1.10,2013-05-21 11:04:00,
2013-05-21 07:19:00,54.2,50.0,29.87,ENE,76,8.0,10.0,85,0.00,,,0.78,weatherlink.com 1.10,2013-05-21 11:19:00,
2013-05-21 07:34:00,54.0,50.0,29.88,ENE,70,9.0,13.0,85,0.02,,,0.80,weatherlink.com 1.10,2013-05-21 11:34:00,
2013-05-21 07:49:00,53.6,50.0,29.89,ENE,72,3.0,11.0,86,0.26,,,0.12,weatherlink.com 1.10,2013-05-21 11:49:00,
2013-05-21 08:04:00,52.9,49.0,29.83,NE,54,14.0,17.0,86,0.53,,,0.39,weatherlink.com 1.10,2013-05-21 12:04:00,
2013-05-21 08:19:00,53.0,49.0,29.82,NE,54,5.0,17.0,86,0.54,,,0.40,weatherlink.com 1.10,2013-05-21 12:19:00,
2013-05-21 08:34:00,53.3,49.0,29.80,ENE,71,9.0,16.0,86,0.51,,,0.40,weatherlink.com 1.10,2013-05-21 12:34:00,
2013-05-21 08:49:00,53.5,50.0,29.81,South,170,1.0,15.0,86,0.22,,,0.40,weatherlink.com 1.10,2013-05-21 12:49:00,
2013-05-21 09:04:00,53.3,49.0,29.82,East,98,6.0,16.0,86,0.01,,,0.40,weatherlink.com 1.10,2013-05-21 13:04:00,
2013-05-21 09:19:00,53.4,49.0,29.87,East,79,0.0,7.0,86,0.02,,,0.42,weatherlink.com 1.10,2013-05-21 13:19:00,
2013-05-21 09:34:00,53.3,49.0,29.88,South,188,4.0,8.0,86,0.19,,,0.59,weatherlink.com 1.10,2013-05-21 13:34:00,
2013-05-21 09:49:00,51.5,48.0,29.85,SE,144,0.0,5.0,86,0.38,,,0.78,weatherlink.com 1.10,2013-05-21 13:49:00,
2013-05-21 10:04:00,51.6,48.0,29.84,SSE,148,3.0,4.0,87,0.43,,,0.83,weatherlink.com 1.10,2013-05-21 14:04:00,
2013-05-21 10:19:00,52.3,49.0,29.83,ENE,71,2.0,5.0,87,0.41,,,0.84,weatherlink.com 1.10,2013-05-21 14:19:00,
2013-05-21 10:34:00,53.2,50.0,29.83,NE,53,0.0,13.0,87,0.25,,,0.85,weatherlink.com 1.10,2013-05-21 14:34:00,
2013-05-21 10:49:00,53.3,50.0,29.84,East,92,6.0,9.0,87,0.08,,,0.86,weatherlink.com 1.10,2013-05-21 14:49:00,
2013-05-21 11:04:00,53.4,50.0,29.84,East,100,0.0,3.0,87,0.03,,,0.86,weatherlink.com 1.10,2013-05-21 15:04:00,
2013-05-21 11:19:00,53.6,50.0,29.84,East,100,0.0,1.0,87,0.03,,,0.87,weatherlink.com 1.10,2013-05-21 15:19:00,
2013-05-21 11:34:00,53.9,50.0,29.84,East,100,1.0,2.0,87,0.03,,,0.88,weatherlink.com 1.10,2013-05-21 15:34:00,
2013-05-21 11:49:00,54.2,51.0,29.85,SW,225,6.0,7.0,87,0.04,,,0.90,weatherlink.com 1.10,2013-05-21 15:49:00,
2013-05-21 12:04:00,50.5,47.0,29.86,WSW,255,4.0,6.0,86,0.07,,,0.93,weatherlink.com 1.10,2013-05-21 16:04:00,
2013-05-21 12:19:00,49.6,46.0,29.87,WSW,244,4.0,6.0,87,0.09,,,0.96,weatherlink.com 1.10,2013-05-21 16:19:00,
2013-05-21 12:34:00,50.1,46.0,29.85,WSW,244,1.0,2.0,87,0.10,,,0.98,weatherlink.com 1.10,2013-05-21 16:34:00,
2013-05-21 12:49:00,51.8,48.0,29.84,WSW,244,2.0,3.0,87,0.09,,,0.99,weatherlink.com 1.10,2013-05-21 16:49:00,
2013-05-21 13:04:00,54.1,51.0,29.83,ESE,105,0.0,3.0,88,0.07,,,1.00,weatherlink.com 1.10,2013-05-21 17:04:00,
2013-05-21 13:19:00,55.6,52.0,29.83,ENE,58,7.0,9.0,87,0.04,,,1.00,weatherlink.com 1.10,2013-05-21 17:19:00,
2013-05-21 13:34:00,55.8,52.0,29.83,ENE,67,1.0,8.0,87,0.01,,,1.00,weatherlink.com 1.10,2013-05-21 17:34:00,
2013-05-21 13:49:00,56.0,52.0,29.82,ESE,113,0.0,6.0,87,0.01,,,1.00,weatherlink.com 1.10,2013-05-21 17:49:00,
2013-05-21 14:04:00,56.5,52.0,29.82,East,85,2.0,7.0,86,0.00,,,1.00,weatherlink.com 1.10,2013-05-21 18:04:00,
2013-05-21 14:19:00,56.4,52.0,29.82,East,96,3.0,8.0,86,0.00,,,1.00,weatherlink.com 1.10,2013-05-21 18:19:00,
2013-05-21 14:34:00,56.3,52.0,29.80,NE,55,3.0,7.0,86,0.00,,,1.00,weatherlink.com 1.10,2013-05-21 18:34:00,
2013-05-21 14:49:00,56.5,52.0,29.80,East,79,5.0,10.0,86,0.00,,,1.00,weatherlink.com 1.10,2013-05-21 18:49:00,
2013-05-21 15:04:00,56.6,53.0,29.80,East,87,3.0,9.0,86,0.00,,,1.00,weatherlink.com 1.10,2013-05-21 19:04:00,
2013-05-21 15:19:00,56.6,53.0,29.80,ENE,67,4.0,9.0,86,0.00,,,1.00,weatherlink.com 1.10,2013-05-21 19:19:00,
2013-05-21 15:34:00,57.0,53.0,29.80,East,92,5.0,8.0,86,0.00,,,1.00,weatherlink.com 1.10,2013-05-21 19:34:00,
2013-05-21 15:49:00,57.3,53.0,29.79,East,88,7.0,7.0,86,0.00,,,1.00,weatherlink.com 1.10,2013-05-21 19:49:00,
2013-05-21 16:04:00,57.7,54.0,29.78,ESE,103,7.0,11.0,86,0.00,,,1.00,weatherlink.com 1.10,2013-05-21 20:04:00,
2013-05-21 16:19:00,57.6,54.0,29.79,ENE,57,4.0,12.0,86,0.00,,,1.00,weatherlink.com 1.10,2013-05-21 20:19:00,
2013-05-21 16:34:00,57.5,53.0,29.79,East,91,7.0,13.0,86,0.00,,,1.00,weatherlink.com 1.10,2013-05-21 20:34:00,
2013-05-21 16:49:00,57.7,54.0,29.79,East,91,9.0,10.0,86,0.00,,,1.00,weatherlink.com 1.10,2013-05-21 20:49:00,
2013-05-21 17:04:00,57.9,54.0,29.79,East,88,6.0,7.0,85,0.00,,,1.00,weatherlink.com 1.10,2013-05-21 21:04:00,
2013-05-21 17:19:00,58.3,54.0,29.80,ESE,106,3.0,8.0,86,0.00,,,1.00,weatherlink.com 1.10,2013-05-21 21:19:00,
2013-05-21 17:34:00,58.5,54.0,29.80,SE,128,3.0,12.0,85,0.00,,,1.00,weatherlink.com 1.10,2013-05-21 21:34:00,
2013-05-21 17:49:00,58.3,54.0,29.80,ENE,74,5.0,12.0,85,0.00,,,1.00,weatherlink.com 1.10,2013-05-21 21:49:00,
2013-05-21 18:04:00,58.4,54.0,29.80,ENE,57,10.0,12.0,85,0.00,,,1.00,weatherlink.com 1.10,2013-05-21 22:04:00,
2013-05-21 18:19:00,58.5,54.0,29.80,East,87,8.0,12.0,85,0.00,,,1.00,weatherlink.com 1.10,2013-05-21 22:19:00,
2013-05-21 18:34:00,58.6,55.0,29.79,NNE,17,1.0,8.0,86,0.00,,,1.00,weatherlink.com 1.10,2013-05-21 22:34:00,
2013-05-21 18:49:00,58.7,55.0,29.79,NE,36,5.0,10.0,86,0.00,,,1.00,weatherlink.com 1.10,2013-05-21 22:49:00,
2013-05-21 19:04:00,58.7,55.0,29.79,East,94,6.0,10.0,86,0.00,,,1.00,weatherlink.com 1.10,2013-05-21 23:04:00,
2013-05-21 19:20:00,58.5,54.0,29.79,East,84,0.0,8.0,85,0.00,,,1.00,weatherlink.com 1.10,2013-05-21 23:20:00,
2013-05-21 19:34:00,58.1,54.0,29.79,ENE,62,8.0,10.0,86,0.00,,,1.00,weatherlink.com 1.10,2013-05-21 23:34:00,
2013-05-21 19:49:00,58.0,54.0,29.79,ENE,57,3.0,8.0,86,0.00,,,1.00,weatherlink.com 1.10,2013-05-21 23:49:00,
2013-05-21 20:04:00,57.6,54.0,29.79,ENE,74,4.0,7.0,86,0.00,,,1.00,weatherlink.com 1.10,2013-05-22 00:04:00,
2013-05-21 20:20:00,57.4,53.0,29.79,East,85,1.0,7.0,86,0.00,,,1.00,weatherlink.com 1.10,2013-05-22 00:20:00,
2013-05-21 20:35:00,57.1,53.0,29.78,ENE,70,3.0,12.0,86,0.00,,,1.00,weatherlink.com 1.10,2013-05-22 00:35:00,
2013-05-21 20:50:00,56.9,53.0,29.79,ENE,63,4.0,8.0,86,0.00,,,1.00,weatherlink.com 1.10,2013-05-22 00:50:00,
2013-05-21 21:05:00,56.7,53.0,29.78,ENE,60,4.0,9.0,86,0.00,,,1.00,weatherlink.com 1.10,2013-05-22 01:05:00,
2013-05-21 21:20:00,56.5,52.0,29.77,NE,49,7.0,9.0,86,0.00,,,1.00,weatherlink.com 1.10,2013-05-22 01:20:00,
2013-05-21 21:35:00,56.4,52.0,29.76,ENE,62,3.0,11.0,86,0.00,,,1.00,weatherlink.com 1.10,2013-05-22 01:35:00,
2013-05-21 21:50:00,56.3,52.0,29.77,ENE,74,3.0,7.0,86,0.00,,,1.00,weatherlink.com 1.10,2013-05-22 01:50:00,
2013-05-21 22:05:00,56.3,52.0,29.77,ENE,64,5.0,8.0,86,0.00,,,1.00,weatherlink.com 1.10,2013-05-22 02:05:00,
2013-05-21 22:20:00,56.2,52.0,29.77,NE,46,5.0,8.0,86,0.00,,,1.00,weatherlink.com 1.10,2013-05-22 02:20:00,
2013-05-21 22:35:00,56.2,52.0,29.77,ENE,73,9.0,10.0,86,0.00,,,1.00,weatherlink.com 1.10,2013-05-22 02:35:00,
2013-05-21 22:50:00,56.3,52.0,29.78,NNE,30,1.0,9.0,86,0.00,,,1.00,weatherlink.com 1.10,2013-05-22 02:50:00,
2013-05-21 23:05:00,56.1,52.0,29.78,NNE,28,0.0,7.0,86,0.02,,,1.02,weatherlink.com 1.10,2013-05-22 03:05:00,
2013-05-21 23:20:00,55.7,52.0,29.79,NE,34,0.0,5.0,86,0.06,,,1.06,weatherlink.com 1.10,2013-05-22 03:20:00,
2013-05-21 23:35:00,55.4,51.0,29.77,ENE,63,4.0,9.0,86,0.34,,,1.34,weatherlink.com 1.10,2013-05-22 03:35:00,
2013-05-21 23:50:00,55.1,51.0,29.80,SW,217,3.0,5.0,87,0.50,,,1.50,weatherlink.com 1.10,2013-05-22 03:50:00,